Find Kosmos-1987

NORAD ID: 19749 Int'l Des: 1989-001 Owner: UNKS Country: SU Constellation: GLONASS operational
MEOCIRCULAR

Live-Position

3D-Globus wird geladen...

Über Kosmos-1987

Beschreibung wird geladen...

Nächste Überflüge

Passes for default location (London). Set your location on the main map for personalized predictions.

Höhenverlauf

Loading altitude history...

Zweizeiliger Elementsatz

1 19749U 89001A 26104.86306015 .00000035 00000-0 00000+0 0 9997
2 19749 64.9005 74.4548 0005057 243.1220 299.5961 2.13073117289947
Epoch: 14. Apr. 2026 • Age: 70 hours

Aktueller Status

Höhe 19141.2 km
Geschwindigkeit 3.95 km/s
Subsatellitenpunkt -58.29°S, 178.28°W
Startdatum 10. Jan. 1989
Alter 37.2 years
Typ other

Technische Details

Klassifizierung Payload
Masse 1300.00 kg
Trockenmasse 1200.00 kg
Gesamtmasse 1300.00 kg
Länge 4.00 m
Durchmesser 1.50 m
Spannweite 7.80 m
Form Cyl + Ant + 2 Pan
Hersteller OAZ
Bus-Typ Uragan
Phasenstatus In Orbit
Besitzer/Staat UNKS/SU

Most Searched